TimeMST,TemperatureF,Dew PointF,Humidity,Sea Level PressureIn,VisibilityMPH,Wind Direction,Wind SpeedMPH,Gust SpeedMPH,PrecipitationIn,Events,Conditions,WindDirDegrees,DateUTC
12:15 AM,71.6,26.6,19,29.80,10.0,SE,6.9,-,N/A,,Clear,130,2013-05-01 07:15:00
12:35 AM,69.8,26.6,20,29.80,10.0,ESE,8.1,-,N/A,,Clear,120,2013-05-01 07:35:00
12:55 AM,68.0,26.6,21,29.80,10.0,SE,6.9,-,N/A,,Clear,130,2013-05-01 07:55:00
1:15 AM,68.0,24.8,20,29.80,10.0,SSE,6.9,-,N/A,,Clear,150,2013-05-01 08:15:00
1:35 AM,68.0,26.6,21,29.80,10.0,SE,6.9,-,N/A,,Clear,130,2013-05-01 08:35:00
1:55 AM,64.4,26.6,24,29.80,10.0,SE,6.9,-,N/A,,Clear,130,2013-05-01 08:55:00
2:15 AM,64.4,26.6,24,29.81,10.0,SE,9.2,-,N/A,,Clear,130,2013-05-01 09:15:00
2:35 AM,64.4,26.6,24,29.82,10.0,ESE,6.9,-,N/A,,Clear,120,2013-05-01 09:35:00
2:55 AM,64.4,26.6,24,29.82,10.0,ESE,4.6,-,N/A,,Clear,110,2013-05-01 09:55:00
3:15 AM,62.6,23.0,22,29.82,10.0,ESE,8.1,-,N/A,,Clear,110,2013-05-01 10:15:00
3:35 AM,62.6,21.2,20,29.82,10.0,ESE,6.9,-,N/A,,Clear,110,2013-05-01 10:35:00
3:55 AM,64.4,21.2,19,29.83,10.0,ESE,5.8,-,N/A,,Clear,120,2013-05-01 10:55:00
4:15 AM,64.4,23.0,21,29.84,10.0,ESE,6.9,-,N/A,,Clear,120,2013-05-01 11:15:00
4:35 AM,62.6,24.8,24,29.85,10.0,SE,8.1,-,N/A,,Clear,130,2013-05-01 11:35:00
4:47 AM,64.4,23.0,21,29.85,20.0,ESE,8.1,-,N/A,,Scattered Clouds,110,2013-05-01 11:47:00
4:55 AM,62.6,21.2,20,29.85,10.0,ESE,6.9,-,N/A,,Clear,120,2013-05-01 11:55:00
5:15 AM,62.6,23.0,22,29.86,10.0,SE,8.1,-,N/A,,Clear,130,2013-05-01 12:15:00
5:47 AM,62.6,21.2,20,29.87,45.0,ESE,10.4,-,N/A,,Scattered Clouds,120,2013-05-01 12:47:00
6:47 AM,62.6,21.2,20,29.90,45.0,ESE,6.9,-,N/A,,Scattered Clouds,110,2013-05-01 13:47:00
7:55 AM,73.4,30.2,20,29.92,35.0,SE,5.8,-,N/A,,Scattered Clouds,140,2013-05-01 14:55:00
8:47 AM,78.8,21.2,12,29.92,35.0,SE,9.2,-,N/A,,Partly Cloudy,140,2013-05-01 15:47:00
9:47 AM,80.6,21.2,11,29.94,35.0,SE,4.6,-,N/A,,Partly Cloudy,140,2013-05-01 16:47:00
10:47 AM,84.2,19.4,9,29.95,35.0,Variable,4.6,-,N/A,,Partly Cloudy,0,2013-05-01 17:47:00
11:47 AM,84.2,19.4,9,29.94,35.0,WSW,4.6,-,N/A,,Partly Cloudy,250,2013-05-01 18:47:00
12:47 PM,87.8,19.4,8,29.93,35.0,SW,3.5,-,N/A,,Clear,220,2013-05-01 19:47:00
1:47 PM,87.8,19.4,8,29.93,35.0,SW,6.9,-,N/A,,Clear,230,2013-05-01 20:47:00
2:47 PM,91.4,21.2,8,29.91,35.0,West,6.9,-,N/A,,Clear,270,2013-05-01 21:47:00
3:47 PM,91.4,21.2,8,29.90,35.0,WSW,11.5,-,N/A,,Clear,240,2013-05-01 22:47:00
4:47 PM,93.2,21.2,7,29.90,35.0,WNW,5.8,-,N/A,,Clear,300,2013-05-01 23:47:00
5:47 PM,91.4,21.2,8,29.90,35.0,West,10.4,-,N/A,,Clear,280,2013-05-02 00:47:00
6:47 PM,89.6,21.2,8,29.90,35.0,West,9.2,-,N/A,,Clear,280,2013-05-02 01:47:00
7:47 PM,84.2,24.8,11,29.92,20.0,West,3.5,-,N/A,,Clear,270,2013-05-02 02:47:00
7:55 PM,82.4,23.0,11,29.93,10.0,Calm,Calm,-,N/A,,Clear,0,2013-05-02 02:55:00
8:15 PM,82.4,23.0,11,29.93,10.0,Calm,Calm,-,N/A,,Clear,0,2013-05-02 03:15:00
8:35 PM,82.4,23.0,11,29.93,10.0,West,4.6,-,N/A,,Clear,280,2013-05-02 03:35:00
8:47 PM,84.2,21.2,10,29.94,20.0,West,4.6,-,N/A,,Clear,280,2013-05-02 03:47:00
8:55 PM,80.6,21.2,11,29.94,10.0,West,4.6,-,N/A,,Clear,280,2013-05-02 03:55:00
9:15 PM,78.8,24.8,14,29.95,10.0,SE,4.6,-,N/A,,Clear,130,2013-05-02 04:15:00
9:35 PM,78.8,26.6,15,29.96,10.0,Calm,Calm,-,N/A,,Clear,0,2013-05-02 04:35:00
9:47 PM,78.8,26.6,15,29.96,20.0,Calm,Calm,-,N/A,,Clear,0,2013-05-02 04:47:00
9:55 PM,78.8,24.8,14,29.96,10.0,Calm,Calm,-,N/A,,Clear,0,2013-05-02 04:55:00
10:15 PM,71.6,28.4,20,29.96,10.0,SE,4.6,-,N/A,,Clear,140,2013-05-02 05:15:00
10:35 PM,71.6,28.4,20,29.96,10.0,Calm,Calm,-,N/A,,Clear,0,2013-05-02 05:35:00
10:47 PM,73.4,28.4,19,29.97,20.0,ESE,3.5,-,N/A,,Clear,120,2013-05-02 05:47:00
10:55 PM,71.6,24.8,17,29.97,10.0,Calm,Calm,-,N/A,,Clear,0,2013-05-02 05:55:00
11:15 PM,71.6,26.6,19,29.97,10.0,ESE,5.8,-,N/A,,Clear,120,2013-05-02 06:15:00
11:35 PM,69.8,26.6,20,29.98,10.0,ESE,3.5,-,N/A,,Clear,120,2013-05-02 06:35:00
11:55 PM,68.0,26.6,21,29.98,10.0,SE,3.5,-,N/A,,Clear,140,2013-05-02 06:55:00